User: anonymous   Login
Location: Unspecified
(0.0000°N, 0.0000°E)
Time: 07:15:30
(UTC+00:00)
Language:

DNEPR OBJECT AB - Orbit

View from above orbital plane
View from above orbital plane
View from above satellite
View from above satellite

Ground track
Ground track

The orbit data is extracted from the following two-line orbital elements,

1 39441U 13066AB  17178.02329052 +.00000122 +00000-0 +24886-4 0  9991
2 39441 097.6261 207.5841 0080587 272.1174 087.0809 14.74621525192273
Epoch (UTC): 27 June 2017 00:33:32
Eccentricity: 0.0080587
inclination: 97.6261°
perigee height: 590 km
apogee height: 703 km
right ascension of ascending node: 207.5841°
argument of perigee: 272.1174°
revolutions per day: 14.74621525
mean anomaly at epoch: 87.0809°
orbit number at epoch: 19227

The dashed part of the orbit path shows where the satellite is in the earth's shadow,  

DLR